Content
SEND FEEDBACK

Daily
Averages
Monthly
Summary
United States of America

UMATAC, GUAM


Home > North America > United States > Guam
Elevation: 190 feet     Latitude: 13 17N     Longitude: 144 40E

WEATHER
 
SELECT A DAY
Number of Records: 354,808;   Date Range: 1/1/95 - 11/27/14
 
SHARE

PRINT THIS DATA

[ ← Previous Day ]
WEATHER ALMANAC - MARCH 21, 2014
[ Next Day → ]
[ °C ]   °F
Weather ElementAverageHighLow
Temperature77.9 °F83.1 °F (12:58 pm)71.6 °F (3:28 am)
Dewpoint71.4 °F73.8 °F (8:58 am)65.7 °F (3:58 am)
Humidity80.6 %89 % (1:08 am)68 % (11:58 am)
Barometer29.82 in29.89 in (9:32 pm)29.76 in (1:58 pm)
Wind Speed12.9 mph20.7 mph (6:33 am)
Wind Gust20.7 mph (5:13 am)
Weather ElementAverage
Visibility9.8 mi
Wind DirectionENE (78.8 °)

Weather ElementTotal
Precipitation0.02 in
Cooling Degree Days12.4 (Base 65)
Growing Degree Days27.4 (Base 50)
Averaged from 50 records on March 21, 2014
WEATHER CONDITIONS BREAKOUT
WIND DIRECTION BREAKOUT
WEATHER BY HOUR - MARCH 21, 2014
[ °C ]   °F
Local TimeTemperatureDewpointHumidityBarometerVisibilityWind DirectionWind SpeedGust SpeedPrecipitationEventsConditions
1:08 AM75.2 °F71.6 °F89 %29.84 in10.0 miENE (70°)11.5 mphMostly Cloudy
1:13 AM77.0 °F69.8 °F78 %29.84 in10.0 miENE (70°)11.5 mphScattered Clouds
1:58 AM73.2 °F67.5 °F82 %29.81 in10.0 miEast (80°)11.5 mphPartly Cloudy
2:58 AM72.1 °F67.5 °F85 %29.79 in10.0 miENE (70°)10.4 mphScattered Clouds
3:28 AM71.6 °F68.0 °F88 %29.82 in10.0 miENE (70°)15.0 mphMostly Cloudy
3:38 AM75.2 °F69.8 °F83 %29.82 in10.0 miENE (70°)16.1 mphMostly Cloudy
3:58 AM72.3 °F65.7 °F79 %29.79 in10.0 miEast (90°)10.4 mphOvercast
4:58 AM76.5 °F72.3 °F87 %29.78 in10.0 miENE (70°)10.4 mphMostly Cloudy
5:08 AM77.0 °F73.4 °F89 %29.81 in10.0 miENE (60°)11.5 mphMostly Cloudy
5:13 AM77.0 °F73.4 °F89 %29.81 in10.0 miEast (80°)17.3 mph20.7 mphMostly Cloudy
5:23 AM77.0 °F71.6 °F83 %29.81 in10.0 miEast (80°)16.1 mphMostly Cloudy
5:28 AM77.0 °F71.6 °F83 %29.81 in10.0 miEast (80°)11.5 mphOvercast
5:33 AM77.0 °F71.6 °F83 %29.81 in10.0 miEast (80°)13.8 mphMostly Cloudy
5:38 AM77.0 °F71.6 °F83 %29.82 in10.0 miEast (80°)13.8 mphScattered Clouds
5:58 AM76.5 °F71.4 °F84 %29.79 in10.0 miEast (80°)13.8 mphScattered Clouds
6:18 AM77.0 °F71.6 °F83 %29.83 in10.0 miEast (80°)12.7 mphMostly Cloudy
6:23 AM77.0 °F71.6 °F83 %29.83 in10.0 miEast (80°)13.8 mphMostly Cloudy
6:28 AM77.0 °F71.6 °F83 %29.83 in10.0 miENE (70°)17.3 mphMostly Cloudy
6:33 AM77.0 °F71.6 °F83 %29.83 in10.0 miENE (70°)20.7 mphMostly Cloudy
6:43 AM77.0 °F71.6 °F83 %29.83 in10.0 miEast (80°)16.1 mphMostly Cloudy
6:48 AM77.0 °F71.6 °F83 %29.83 in10.0 miEast (80°)17.3 mphScattered Clouds
6:58 AM76.3 °F70.3 °F82 %29.81 in10.0 miEast (90°)15.0 mphPartly Cloudy
7:58 AM78.6 °F71.6 °F79 %29.81 in10.0 miEast (90°)19.6 mphMostly Cloudy
8:58 AM79.7 °F73.8 °F82 %29.83 in10.0 miESE (120°)17.3 mphScattered Clouds
9:58 AM81.5 °F72.3 °F74 %29.83 in10.0 miEast (100°)11.5 mphClear
10:58 AM82.4 °F73.4 °F74 %29.82 in10.0 miEast (90°)13.8 mph20.7 mphScattered Clouds
11:58 AM77.5 °F66.4 °F68 %29.79 in10.0 miEast (90°)16.1 mphPartly Cloudy
12:58 PM83.1 °F72.9 °F71 %29.77 in10.0 miEast (90°)15.0 mphPartly Cloudy
1:58 PM83.1 °F72.9 °F71 %29.76 in10.0 miEast (80°)13.8 mph20.7 mphScattered Clouds
2:08 PM82.4 °F73.4 °F74 %29.79 in10.0 miENE (70°)12.7 mphMostly Cloudy
2:23 PM82.4 °F73.4 °F74 %29.79 in10.0 miENE (70°)15.0 mphMostly Cloudy
2:43 PM82.4 °F71.6 °F70 %29.78 in10.0 miENE (70°)12.7 mphMostly Cloudy
2:58 PM81.5 °F71.6 °F72 %29.76 in10.0 miENE (70°)10.4 mphMostly Cloudy
3:03 PM82.4 °F71.6 °F70 %29.79 in10.0 miEast (80°)10.4 mphScattered Clouds
3:58 PM81.9 °F71.8 °F71 %29.76 in10.0 miEast (100°)13.8 mphClear
4:58 PM80.4 °F71.6 °F74 %29.77 in10.0 miEast (90°)12.7 mphScattered Clouds
5:18 PM80.6 °F71.6 °F74 %29.81 in10.0 miEast (80°)11.5 mphMostly Cloudy
5:23 PM80.6 °F71.6 °F74 %29.81 in10.0 miEast (80°)10.4 mphScattered Clouds
5:58 PM78.6 °F71.4 °F78 %29.79 in10.0 miEast (80°)9.2 mphPartly Cloudy
6:27 PM78.8 °F71.6 °F78 %29.82 in10.0 miEast (80°)13.8 mphRainLight Rain
6:39 PM77.0 °F71.6 °F83 %29.83 in6.0 miENE (70°)9.2 mphHaze
6:58 PM77.0 °F73.0 °F88 %29.81 in10.0 miENE (70°)10.4 mph0.01 inMostly Cloudy
7:58 PM77.2 °F71.8 °F83 %29.83 in10.0 miENE (70°)10.4 mphScattered Clouds
8:58 PM77.2 °F72.9 °F86 %29.86 in10.0 miENE (60°)8.1 mphScattered Clouds
9:32 PM77.0 °F73.4 °F89 %29.89 in8.0 miEast (80°)13.8 mphRainRain
9:37 PM75.2 °F71.6 °F89 %29.89 in7.0 miEast (80°)9.2 mph17.3 mphRainLight Rain
9:43 PM75.2 °F69.8 °F83 %29.89 in10.0 miEast (90°)9.2 mphMostly Cloudy
9:58 PM76.1 °F69.8 °F81 %29.86 in10.0 miEast (80°)9.2 mph0.01 inScattered Clouds
10:58 PM76.5 °F72.0 °F86 %29.86 in10.0 miENE (70°)6.9 mphMostly Cloudy
11:58 PM77.2 °F73.6 °F89 %29.86 in10.0 miENE (60°)10.4 mphOvercast
Hourly data recorded from PGUA, located miles away from Umatac, Guam







STORIES FROM OUR PARTNERS